Regional Weather Roundup
Issued by NWS

Home | Current Version | Previous Version | Graphics & Text | Print | Product List | Glossary Off
Versions: 1 2 3 4 5 6 7 8 9 10 11 12 13 14 15 16 17 18 19 20 21 22 23 24 25 26 27 28 29 30 31 32 33 34 35 36 37 38 39 40 41 42 43 44 45 46 47 48 49 50

000
ASUS43 KDTX 281110
RWRMI
MICHIGAN HOURLY REGIONAL WEATHER ROUNDUP
NATIONAL WEATHER SERVICE DETROIT/PONTIAC MI
700 AM EDT SAT MAR 28 2015

NOTE: "FAIR" INDICATES FEW OR NO CLOUDS BELOW 12,000 FEET WITH NO
SIGNIFICANT WEATHER AND/OR OBSTRUCTION TO VISIBILITY.

MIZ047>049-052>055-059>063-066>070-074>076-081>083-281200-
SOUTHEAST LOWER MICHIGAN

CITY           SKY/WX    TMP DP  RH WIND       PRES   REMARKS
ADRIAN         CLEAR     15   6  67 N7        30.22R
ALMA             N/A     11   6  77 N5        30.25R
ANN ARBOR      PTCLDY    15   7  70 NW8       30.20R
BAD AXE        CLOUDY    19   8  60 CALM      30.20R
DETROIT CITY   CLOUDY    20   7  57 N6        30.20R
DETROIT        CLOUDY    18   6  59 NW8       30.21R
FLINT          CLOUDY    15   6  67 NW7       30.22R
GROSSE ILE     CLOUDY    18   7  62 NW8       30.19R
HILLSDALE      CLEAR     12   6  76 CALM      30.19R
HOWELL         CLEAR     14   7  74 NW7       30.20R

CITY           SKY/WX    TMP DP  RH WIND       PRES   REMARKS
JACKSON        CLEAR     13   7  77 CALM      30.21R
LAMBERTVILLE   CLEAR     18   9  68 N5        30.22R
LANSING        CLEAR     12   5  73 CALM      30.24R
LAPEER         NOT AVBL
MASON          CLEAR     13   8  81 CALM      30.22R
MONROE         CLOUDY    18   9  68 CALM      30.20R
MT. CLEMENS    FLURRIES  18  14  86 N6        30.18R
PONTIAC        CLOUDY    15   6  67 NW8       30.18R
PORT HOPE        N/A     22   9  57 NE14      30.19R
PORT HURON     PTCLDY    16   7  67 NE5       30.20R
TRI CITIES     CLEAR     15   7  70 N9        30.24R
YPSILANTI      CLOUDY    20   7  57 NW9       30.21R
$$
MIZ043>046-050>051-056>058-064>065-071>073-077>080-281200-
SOUTHWEST LOWER MICHIGAN

CITY           SKY/WX    TMP DP  RH WIND       PRES   REMARKS
BATTLE CREEK   CLEAR     14   5  67 N3        30.23R
BENTON HARBOR  CLEAR     10   5  80 CALM      30.26R
BIG RAPIDS     CLEAR      9   4  79 CALM      30.23R
COLDWATER      CLEAR     14   6  70 CALM      30.21R
HOLLAND        CLEAR     15   4  61 N3        30.27R
GRAND RAPIDS   CLEAR     13   3  64 N3        30.25R
KALAMAZOO      CLEAR     13   4  67 CALM      30.24R
MARSHALL         N/A     11   8  88 CALM      30.22R
MUSKEGON       CLEAR     13   4  67 N3        30.29R
$$
MIZ016>042-281200-
NORTHERN LOWER MICHIGAN

CITY           SKY/WX    TMP DP  RH WIND       PRES   REMARKS
ALPENA         CLEAR      9   5  84 CALM      30.24R
BEAVER ISLAND  CLEAR      3   0  86 CALM      30.28R
BELLAIRE       CLEAR      5   2  86 CALM      30.29R
CADILLAC       CLEAR      3  -2  78 CALM      30.20R
CHARLEVOIX     CLEAR      7   4  87 CALM      30.30R
FRANKFORT      SUNNY      9   2  73 CALM      30.29R
GAYLORD        CLEAR      3  -1  83 CALM      30.20R
GRAYLING       CLEAR      3  -1  83 CALM      30.23R
HARBOR SPRINGS CLEAR      5   1  83 CALM      30.26R
HOUGHTON LAKE  CLEAR      6   1  80 CALM      30.22R
MANISTEE       CLEAR      7   1  78 CALM      30.28R
OSCODA         CLEAR     11   8  86 NW7       30.23R
PELLSTON       CLEAR      1  -3  83 CALM      30.27R
TRAVERSE CITY  CLEAR      8   3  80 CALM      30.27R
$$
MIZ007>008-015-281200-
EASTERN UPPER MICHIGAN

CITY           SKY/WX    TMP DP  RH WIND       PRES   REMARKS
KINROSS        CLEAR      1   0  92 W6        30.25R
MACKINAC ISLAN CLEAR      8   5  86 CALM      30.25R
NEWBERRY       CLEAR     -5  -7  89 CALM      30.24R
S. S. MARIE    CLEAR      2  -2  83 W5        30.24R
$$
MIZ004>006-011>014-085-281200-
CENTRAL UPPER MICHIGAN

CITY           SKY/WX    TMP DP  RH WIND       PRES   REMARKS
MANISTIQUE     CLEAR     -1  -4  88 W5        30.27R
ESCANABA       CLEAR      0  -2  92 CALM      30.27S
MENOMINEE      CLEAR     10   5  79 CALM      30.27R
SAWYER-GWINN   CLEAR     -8 -13  77 CALM      30.21R
$$
MIZ001>003-009>011-084-281200-
WESTERN UPPER MICHIGAN

CITY           SKY/WX    TMP DP  RH WIND       PRES   REMARKS
IRON MOUNTAIN  CLEAR      1  -5  75 CALM      30.22R
HOUGHTON       CLEAR     -7 -12  79 NW5       30.20R
COPPER HARBOR    N/A      2  -2  83 W7        30.23S
IRONWOOD       CLEAR      3   1  92 CALM      30.17R
$$

ABBREVIATIONS USED IN REMARKS
   TC - TEMPERATURE IN CELSIUS
  WCI - WIND CHILL INDEX
   HX - HEAT INDEX
  VSB - VISIBILITY




USA.gov is the U.S. government's official web portal to all federal, state and local government web resources and services.